"Time","Temp","Dewpoint","Humidity","Pressure","Direction","Speed","Gust","Precip","PrecipRate"
"00:04:56","58.7","53.9","84","30.07","122","2.9","8.4","0.00","0.00"
"00:09:57","58.7","53.9","84","30.07","117","1.4","3.6","0.00","0.00"
"00:14:57","58.6","53.8","84","30.07","126","2","6","0.00","0.00"
"00:19:57","58.5","53.7","84","30.07","115","2.2","6","0.00","0.00"
"00:24:57","58.4","53.6","84","30.07","121","2.4","8.4","0.00","0.00"
"00:29:57","58.4","53.6","84","30.07","116","3.1","8.1","0.00","0.00"
"00:34:57","58.3","53.5","84","30.06","125","1.6","6.9","0.00","0.00"
"00:39:56","58.3","53.7","84.9","30.06","110","1.2","7.2","0.00","0.00"
"00:44:57","58.2","53.7","85","30.06","106","1.3","3.6","0.00","0.00"
"00:49:57","58.1","53.6","85","30.06","109","1.8","4.8","0.00","0.00"
"00:54:56","58","53.8","86","30.06","119","2.4","6","0.00","0.00"
"00:59:56","58","53.8","86","30.06","115","2.4","8.4","0.00","0.00"
"01:04:56","58","53.8","86","30.06","109","2","6.9","0.00","0.00"
"01:09:59","57.9","53.7","86","30.06","111","1.7","4.8","0.00","0.00"
"01:14:59","57.7","53.7","86.4","30.06","102","1.6","3.6","0.00","0.00"
"01:19:58","57.6","53.8","87","30.05","98","2.1","4.8","0.00","0.00"
"01:24:58","57.5","53.7","87","30.05","125","1","4.8","0.00","0.00"
"01:29:58","57.4","53.9","87.9","30.05","115","1.9","4.8","0.00","0.00"
"01:34:58","57.4","53.9","88","30.05","100","1.6","4.8","0.00","0.00"
"01:39:58","57.4","53.9","88","30.05","108","1.7","4.8","0.00","0.00"
"01:44:58","57.4","54","88.5","30.05","116","1.9","6","0.00","0.00"
"01:49:58","57.4","54.2","89","30.04","130","1.5","3.6","0.00","0.00"
"01:54:58","57.3","54.1","89","30.04","100","1.7","4.8","0.00","0.00"
"01:59:57","57.3","54.1","89","30.04","112","1.8","4.8","0.00","0.00"
"02:04:57","57.3","54.1","89","30.04","126","1.4","4.8","0.00","0.00"
"02:09:56","57.3","54.1","89","30.04","102","1.7","3.6","0.00","0.00"
"02:14:57","57.3","54.1","89","30.04","104","1.5","4.8","0.00","0.00"
"02:19:57","57.3","54.1","89","30.04","111","1.8","6","0.00","0.00"
"02:24:56","57.3","54.1","89","30.04","114","2","7.2","0.00","0.00"
"02:29:56","57.2","54","89","30.04","114","1.4","6.9","0.00","0.00"
"02:34:56","57.2","54","89","30.04","113","1.2","3.6","0.00","0.00"
"02:39:56","57.1","53.9","89","30.04","113","1.3","3.6","0.00","0.00"
"02:44:57","57.1","53.9","89","30.04","117","0.8","4.8","0.00","0.00"
"02:49:57","57","53.8","89","30.04","119","1.4","4.8","0.00","0.00"
"02:54:57","57","53.8","89","30.04","111","1.9","4.8","0.00","0.00"
"02:59:57","57.1","53.7","88.4","30.04","107","1.7","4.8","0.00","0.00"
"03:04:58","57.1","53.6","88","30.03","128","1.9","4.8","0.00","0.00"
"03:09:58","57.1","53.7","88.4","30.03","130","1.7","4.6","0.00","0.00"
"03:14:58","57","53.8","89","30.03","129","1.9","4.8","0.00","0.00"
"03:19:58","56.9","53.7","89","30.03","128","1.1","4.8","0.00","0.00"
"03:24:58","56.8","53.6","89","30.03","129","1.6","4.8","0.00","0.00"
"03:29:58","56.7","53.5","89.2","30.03","129","1.4","2.4","0.00","0.00"
"03:34:58","56.5","53.6","90","30.02","128","1.2","3.6","0.00","0.00"
"03:39:59","56.3","53.4","90","30.02","121","1","2.4","0.01","0.01"
"03:44:58","56.2","53.6","91","30.02","119","0.1","2.3","0.01","0.01"
"03:49:58","56","53.4","91","30.02","100","1.2","3.6","0.01","0.01"
"03:54:58","55.9","53.3","91","30.02","87","1.3","3.6","0.01","0.01"
"03:59:57","55.8","53.3","91.4","30.02","86","0.8","2.4","0.02","0.02"
"04:04:57","55.6","53.3","92","30.01","86","1.5","3.6","0.02","0.02"
"04:09:59","55.5","53.2","92","30.01","87","1.3","2.4","0.03","0.03"
"04:14:58","55.4","53.2","92.1","30.01","86","0.6","2.4","0.03","0.03"
"04:19:58","55.3","53.3","93","30.01","68","0.8","3.6","0.04","0.04"
"04:24:58","55.2","53.2","93","30.01","49","0.6","3.5","0.04","0.04"
"04:29:57","55","53","93","30.01","80","1.5","4.8","0.05","0.05"
"04:34:57","54.9","52.9","93","30.01","90","0.9","3.6","0.05","0.05"
"04:39:57","54.7","52.7","93","30.01","100","1.8","4.8","0.06","0.06"
"04:44:56","54.6","52.6","93","30.01","79","1.7","3.6","0.07","0.06"
"04:49:56","54.4","52.4","93","30.00","89","1","3.6","0.08","0.07"
"04:54:56","54.3","52.5","93.8","30.00","73","1.7","4.8","0.08","0.07"
"04:59:56","54.2","52.5","94","30.00","86","1.5","4.8","0.10","0.07"
"05:04:56","54.1","52.4","94","30.00","74","1.5","3.5","0.10","0.08"
"05:09:59","54","52.3","94","30.00","57","1.4","3.6","0.11","0.09"
"05:14:59","53.9","52.2","94","30.00","57","2.2","4.8","0.12","0.09"
"05:19:58","53.8","52.1","94","29.99","48","1.2","6","0.13","0.08"
"05:24:58","53.7","52.2","94.5","29.99","16","1.1","5.8","0.13","0.09"
"05:29:57","53.7","52.3","95","29.99","54","1.6","6","0.13","0.09"
"05:34:57","53.7","52.2","94.8","29.99","80","1.8","6","0.13","0.08"
"05:39:57","53.7","52.3","95","29.99","74","1.2","4.8","0.14","0.08"
"05:44:57","53.6","52.2","95","29.99","95","2.1","4.8","0.14","0.08"
"05:49:57","53.6","52.2","95","29.98","76","2.4","4.8","0.15","0.08"
"05:54:56","53.6","52.2","95","29.98","78","2.3","4.8","0.16","0.08"
"05:59:56","53.6","52.2","95","29.98","81","1.7","6","0.17","0.08"
"06:04:57","53.6","52.2","95","29.98","88","0.9","3.5","0.18","0.08"
"06:09:57","53.6","52.2","95","29.98","70","1.5","3.6","0.20","0.08"
"06:14:57","53.6","52.2","95","29.98","47","1.1","2.4","0.21","0.09"
"06:19:58","53.6","52.3","95.4","29.98","43","0.9","3.6","0.21","0.09"
"06:24:58","53.6","52.5","96","29.98","81","1.8","4.8","0.22","0.09"
"06:29:58","53.6","52.5","96","29.98","45","1.3","4.8","0.23","0.10"
"06:34:58","53.6","52.5","96","29.98","73","1.5","3.6","0.24","0.10"
"06:39:58","53.7","52.6","96","29.98","97","1.6","3.6","0.24","0.11"
"06:44:58","53.7","52.6","96","29.98","80","2.5","6","0.25","0.11"
"06:49:58","53.8","52.7","96","29.98","87","2.9","6","0.25","0.10"
"06:54:57","53.9","52.8","96","29.98","74","2.3","6","0.26","0.10"
"06:59:56","53.9","52.8","96","29.98","105","1.5","3.6","0.26","0.10"
"07:04:57","54","52.9","96","29.97","84","1.6","8.4","0.27","0.10"
"07:09:56","54.1","53","96","29.97","88","2.8","8.1","0.28","0.09"
"07:14:56","54.1","53","96","29.97","91","2.6","4.8","0.28","0.08"
"07:19:56","54.2","53.1","96","29.97","79","2.3","6","0.29","0.08"
"07:24:59","54.2","53.1","96","29.97","77","2.1","7.2","0.29","0.08"
"07:29:59","54.3","53.2","96","29.98","62","1.6","4.8","0.30","0.08"
"07:34:58","54.3","53.2","96","29.98","87","2.2","6","0.30","0.07"
"07:39:58","54.4","53.3","96","29.98","83","2.6","6","0.31","0.07"
"07:44:58","54.4","53.3","96","29.98","82","1.6","5.8","0.31","0.07"
"07:49:58","54.4","53.3","96","29.97","87","2.5","7.2","0.32","0.07"
"07:54:58","54.5","53.4","96","29.97","68","2.2","4.8","0.32","0.07"
"07:59:58","54.5","53.4","96","29.97","106","1.7","4.8","0.32","0.06"
"08:04:58","54.5","53.4","96","29.97","114","1.3","6","0.33","0.06"
"08:09:57","54.5","53.4","96","29.97","97","2.1","5.8","0.33","0.06"
"08:14:57","54.5","53.4","96","29.97","94","2.5","8.4","0.33","0.05"
"08:19:57","54.5","53.4","96","29.97","95","2.5","6","0.33","0.05"
"08:24:57","54.5","53.4","96","29.97","82","2.1","4.8","0.34","0.05"
"08:29:56","54.5","53.4","96","29.97","108","1.8","4.8","0.34","0.05"
"08:34:59","54.5","53.4","96","29.97","97","2.2","7.2","0.34","0.04"
"08:39:59","54.5","53.4","96","29.97","76","1.8","6","0.35","0.05"
"08:44:58","54.5","53.4","96","29.97","95","2.4","6","0.35","0.04"
"08:49:58","54.5","53.4","96","29.97","84","3","6","0.35","0.04"
"08:54:57","54.5","53.3","95.5","29.97","92","2.1","5.8","0.35","0.03"
"08:59:56","54.6","53.4","95.6","29.97","83","1.7","3.6","0.36","0.04"
"09:04:56","54.6","53.4","95.8","29.97","75","2.6","4.8","0.36","0.04"
"09:09:59","54.6","53.2","95.2","29.97","113","2.3","6","0.37","0.04"
"09:14:56","54.5","53.2","95.3","29.97","100","2.6","8.4","0.37","0.04"
"09:19:59","54.5","53.3","95.4","29.97","93","1.7","4.8","0.38","0.04"
"09:24:58","54.5","53.1","95","29.97","99","2.4","7.2","0.38","0.05"
"09:29:58","54.5","53.1","95","29.97","104","1.7","4.8","0.39","0.05"
"09:34:57","54.5","53.1","95","29.97","81","2.1","4.8","0.39","0.05"
"09:39:56","54.5","53.1","95","29.97","97","1.7","6","0.39","0.05"
"09:44:59","54.5","53.1","95","29.97","82","2","6","0.40","0.05"
"09:49:59","54.4","53","95","29.96","93","3.2","7.2","0.41","0.06"
"09:54:58","54.4","53","95","29.96","81","2.4","7.2","0.42","0.07"
"09:59:58","54.4","53","95","29.97","45","2.4","4.8","0.43","0.07"
"10:04:58","54.3","52.9","95","29.97","83","2.5","7.2","0.44","0.08"
"10:09:57","54.3","53","95.2","29.97","104","2.5","8.4","0.45","0.09"
"10:14:58","54.3","53.2","96","29.97","99","3.1","7.2","0.47","0.10"
"10:19:58","54.2","53","95.7","29.97","84","3.4","6.9","0.48","0.11"
"10:24:57","54.2","53.1","96","29.97","83","2.6","6","0.49","0.11"
"10:29:56","54.2","53.1","96","29.97","91","2.3","6","0.51","0.12"
"10:34:56","54.2","53.1","96","29.96","83","2.8","13.2","0.52","0.12"
"10:39:59","54.2","53.1","96","29.96","97","2.4","12.7","0.53","0.13"
"10:44:59","54.2","53","95.8","29.97","113","2.8","6","0.54","0.14"
"10:49:59","54.2","53.1","96","29.97","106","2","3.6","0.56","0.15"
"10:54:58","54.1","53","96","29.97","83","1.6","4.8","0.57","0.16"
"10:59:57","54.1","53","96","29.97","81","1.8","6","0.59","0.16"
"11:04:57","54.1","53","96","29.96","80","3.2","8.4","0.61","0.17"
"11:09:56","54","52.9","95.8","29.96","80","2.1","4.8","0.62","0.17"
"11:14:56","54","52.8","95.8","29.96","97","2.7","7.2","0.63","0.17"
"11:19:56","54","52.6","95","29.95","76","2.5","6","0.64","0.16"
"11:24:56","54","52.6","95","29.95","88","2.9","6","0.65","0.16"
"11:29:59","54.1","52.7","95","29.95","72","3.9","17.3","0.65","0.15"
"11:34:59","54.1","52.7","95","29.95","64","2.7","6.9","0.66","0.15"
"11:39:59","54.1","52.7","95","29.95","94","2.2","4.8","0.67","0.14"
"11:44:56","54.1","52.7","95","29.95","77","1.7","4.8","0.67","0.14"
"11:49:58","54.1","52.7","95","29.95","84","2.2","4.8","0.68","0.13"
"11:54:56","54.1","52.7","95","29.95","78","2.5","7.2","0.69","0.13"
"11:59:59","54.1","52.7","95","29.95","69","2.2","4.8","0.70","0.12"
"12:04:59","54.1","52.7","95","29.95","79","2.2","6","0.71","0.11"
"12:09:57","54.1","52.9","95.6","29.95","85","2.3","6","0.72","0.11"
"12:14:57","54.1","53","96","29.95","64","1.1","4.8","0.73","0.11"
"12:19:57","54.1","53","95.9","29.94","80","3.3","10.8","0.74","0.10"
"12:24:56","54.1","52.9","95.8","29.94","97","3.3","10.8","0.75","0.10"
"12:29:59","54.1","52.8","95.4","29.94","88","3.4","7.2","0.76","0.10"
"12:34:58","54.1","52.7","95","29.93","108","3.5","6","0.77","0.11"
"12:39:58","54.1","52.7","95","29.93","94","2.9","7.2","0.78","0.11"
"12:44:57","54.1","52.7","95.2","29.93","102","3.5","10.8","0.79","0.12"
"12:49:56","54","52.6","95","29.92","87","4.3","13.2","0.80","0.12"
"12:54:59","54.1","52.7","95","29.92","81","3.7","7.2","0.81","0.12"
"12:59:59","54.1","52.7","95","29.92","84","4.8","10.8","0.82","0.12"
"13:04:58","54.2","52.8","95","29.92","91","5.1","18","0.82","0.12"
"13:09:57","54.2","52.8","95","29.92","97","4.9","18.4","0.83","0.11"
"13:14:57","54.4","53","95","29.92","98","3.3","8.4","0.84","0.11"
"13:19:57","54.4","53","95","29.91","93","4.1","10.8","0.85","0.11"
"13:24:56","54.2","52.8","95","29.91","100","3.7","10.4","0.86","0.12"
"13:29:56","54.1","52.7","95","29.91","96","4.6","8.4","0.88","0.12"
"13:34:56","54","52.6","95","29.91","89","4.4","12","0.90","0.13"
"13:39:56","53.8","52.4","95","29.91","94","4.2","12","0.92","0.14"
"13:44:56","53.6","52.2","95","29.91","73","3.6","8.4","0.93","0.14"
"13:49:59","53.5","52.1","95","29.91","66","3.5","13.2","0.95","0.15"
"13:54:58","53.4","52","95","29.91","86","3","8.4","0.95","0.15"
"13:59:58","53.3","51.9","95","29.91","48","2.8","8.4","0.96","0.15"
"14:04:58","53.3","51.9","95","29.89","66","4.2","8.4","0.97","0.15"
"14:09:57","53.3","51.9","95","29.89","54","2.6","6","0.99","0.15"
"14:14:57","53.3","51.9","95","29.89","59","4.4","12","1.00","0.17"
"14:19:56","53.3","51.9","95","29.89","63","3.1","10.4","1.02","0.18"
"14:24:56","53.3","51.9","95","29.89","71","2.9","7.2","1.03","0.18"
"14:29:55","53.4","52","95","29.89","78","2.7","7.2","1.05","0.18"
"14:34:56","53.3","51.9","95","29.88","62","2.8","13.2","1.05","0.17"
"14:39:57","53.3","51.9","95","29.88","68","3.1","12.7","1.06","0.15"
"14:44:57","53.3","51.9","95","29.88","51","2.6","6","1.07","0.14"
"14:49:56","53.2","51.8","95","29.87","70","2.8","7.2","1.07","0.14"
"14:54:56","53.2","51.8","95","29.87","71","1.8","5.8","1.07","0.12"
"14:59:56","53.1","51.7","95","29.87","277","2.3","7.2","1.07","0.12"
"15:04:56","53.1","51.7","95","29.87","72","2.7","8.4","1.08","0.12"
"15:09:59","53","51.6","95","29.87","67","2","6","1.09","0.11"
"15:14:59","53","51.6","95","29.87","44","1.7","4.8","1.11","0.11"
"15:19:59","52.9","51.5","95","29.86","47","3","6","1.11","0.11"
"15:24:59","52.9","51.5","95","29.86","54","2.3","5.8","1.11","0.09"
"15:29:59","52.9","51.5","95","29.86","97","1.9","4.8","1.12","0.08"
"15:34:59","52.9","51.5","95","29.86","32","2.2","4.8","1.13","0.08"
"15:39:55","52.8","51.4","95","29.86","26","1.8","6","1.14","0.08"
"15:44:56","52.8","51.4","95","29.86","92","2","4.8","1.14","0.08"
"15:49:59","52.8","51.4","95","29.86","52","2.8","6","1.15","0.08"
"15:54:59","52.7","51.3","95","29.86","80","1.8","4.8","1.15","0.08"
"15:59:59","52.7","51.3","95","29.86","78","1.8","4.8","1.15","0.08"
"16:04:59","52.7","51.3","95","29.86","349","1.9","6","1.16","0.08"
"16:09:58","52.6","51.2","95","29.86","24","1.4","7.2","1.17","0.09"
"16:14:58","52.6","51.2","95","29.86","47","1.8","6.9","1.18","0.08"
"16:19:58","52.6","51.2","95","29.86","48","1.1","4.8","1.19","0.08"
"16:24:58","52.6","51.2","95","29.86","81","2.5","6","1.19","0.08"
"16:29:58","52.6","51.2","95","29.86","71","1.3","3.6","1.19","0.08"
"16:34:58","52.6","51.2","95","29.85","51","0.8","3.6","1.20","0.08"
"16:39:59","52.6","51.2","95","29.85","342","0","2.4","1.21","0.08"
"16:44:59","52.6","51.4","95.5","29.85","345","0.1","2.3","1.22","0.08"
"16:49:59","52.7","51.6","96","29.85","15","1","4.8","1.23","0.08"
"16:54:58","52.7","51.6","96","29.85","30","1.3","4.8","1.23","0.08"
"16:59:57","52.7","51.6","96","29.85","350","1.9","8.4","1.24","0.09"
"17:04:57","52.6","51.5","96","29.85","113","1.6","3.6","1.25","0.09"
"17:09:56","52.6","51.5","96","29.85","30","2.3","3.6","1.25","0.09"
"17:14:56","52.5","51.3","95.7","29.85","70","1.7","6","1.26","0.08"
"17:19:59","52.5","51.3","95.8","29.85","32","1.4","6","1.26","0.08"
"17:24:59","52.5","51.4","96","29.85","25","1.5","4.8","1.27","0.07"
"17:29:58","52.4","51.3","96","29.85","12","2.1","6","1.27","0.08"
"17:34:57","52.4","51.3","96","29.85","29","2","6","1.27","0.08"
"17:39:57","52.3","51.2","96","29.85","52","1.2","6","1.28","0.07"
"17:44:57","52.4","51.3","96","29.85","330","0.3","4.8","1.29","0.07"
"17:49:57","52.3","51.2","96","29.85","337","1.3","4.8","1.29","0.07"
"17:54:56","52.3","51.2","96","29.85","23","1.6","4.6","1.29","0.06"
"17:59:59","52.2","51.1","96","29.85","20","2.1","13.2","1.30","0.06"
"18:04:56","52","50.9","96","29.85","1","3.3","12.7","1.31","0.06"
"18:09:59","52","50.9","96","29.85","8","2.8","8.1","1.31","0.06"
"18:14:59","51.9","50.8","96","29.85","323","2.1","6.9","1.32","0.06"
"18:19:58","51.9","50.8","96","29.84","345","1.4","5.8","1.32","0.06"
"18:24:58","51.9","50.8","96","29.84","4","3","10.8","1.32","0.06"
"18:29:58","51.7","50.6","96","29.84","13","2.2","10.4","1.33","0.06"
"18:34:58","51.7","50.6","96","29.84","23","1.3","6","1.33","0.06"
"18:39:58","51.6","50.5","96","29.84","62","1.8","6","1.33","0.06"
"18:44:57","51.6","50.5","96","29.84","40","1.8","6","1.33","0.05"
"18:49:56","51.5","50.4","96","29.84","322","1.8","8.4","1.34","0.05"
"18:54:59","51.5","50.4","96","29.84","3","2.2","12","1.34","0.05"
"18:59:58","51.4","50.3","96","29.84","352","2.2","11.5","1.34","0.05"
"19:04:58","51.4","50.3","96","29.83","6","1.8","6","1.35","0.04"
"19:09:57","51.4","50.3","96","29.83","9","1.7","7.2","1.35","0.04"
"19:14:58","51.4","50.3","96","29.83","343","2","8.4","1.35","0.04"
"19:19:57","51.3","50.2","96","29.83","3","2.2","8.4","1.36","0.04"
"19:24:57","51.3","50.2","96","29.83","355","2.4","8.1","1.36","0.04"
"19:29:57","51.2","50.4","96.9","29.83","3","1.2","4.8","1.36","0.04"
"19:34:56","51.2","50.3","96.7","29.83","357","1.7","4.8","1.37","0.03"
"19:39:57","51.2","50.1","96","29.83","30","1.8","4.8","1.37","0.04"
"19:44:56","51.1","50","96","29.83","341","2","6","1.37","0.04"
"19:49:56","51.1","50.2","96.6","29.83","353","1.2","6","1.37","0.04"
"19:54:56","51.1","50.3","97","29.83","336","1.2","5.8","1.38","0.04"
"19:59:56","51.1","50.3","97","29.83","341","0.6","4.8","1.38","0.04"
"20:04:57","51.1","50.3","97","29.83","342","0.4","2.4","1.38","0.04"
"20:09:57","51.1","50.3","97","29.83","0","1.8","4.8","1.39","0.04"
"20:14:57","51","50.2","97","29.84","342","1.5","7.2","1.39","0.04"
"20:19:57","51.1","50.3","97","29.84","323","1.1","5.8","1.39","0.04"
"20:24:58","51","50.2","97","29.84","340","2.5","8.4","1.40","0.04"
"20:29:57","51","50.2","97","29.84","345","2.5","8.4","1.40","0.04"
"20:34:56","51","50.2","97","29.84","348","1.6","7.2","1.40","0.04"
"20:39:56","51.1","50.3","97","29.84","357","2.3","12","1.40","0.03"
"20:44:56","51.1","50.3","97","29.84","342","0.6","6","1.40","0.03"
"20:49:56","51.1","50.3","97","29.84","329","2","6","1.41","0.03"
"20:54:56","51.1","50.3","97","29.84","339","2.3","6","1.41","0.04"
"20:59:59","51.1","50.3","97","29.84","344","2.6","6","1.41","0.03"
"21:04:59","51.1","50.3","97","29.84","339","3.3","7.2","1.42","0.04"
"21:09:59","51","50.2","97","29.84","344","2.9","7.2","1.42","0.03"
"21:14:59","51","50.2","97","29.84","350","2","6.9","1.42","0.03"
"21:19:59","51","50.2","97","29.84","317","1.9","6","1.43","0.04"
"21:24:59","51.1","50.3","97","29.84","357","1.7","4.8","1.43","0.04"
"21:29:58","51.1","50.3","97","29.84","359","1.2","4.8","1.44","0.04"
"21:34:58","51.1","50.3","97","29.84","6","2.2","7.2","1.44","0.04"
"21:39:58","51.1","50.3","97","29.84","350","2.3","7.2","1.45","0.05"
"21:44:58","51","50.2","97","29.84","337","2.6","6.9","1.45","0.05"
"21:49:57","51","50.2","97","29.84","340","1.5","4.8","1.45","0.05"
"21:54:57","51","50.2","97","29.84","335","1.7","6","1.46","0.05"
"21:59:56","50.9","50.1","97","29.84","325","2.8","7.2","1.46","0.05"
"22:04:56","50.9","50.1","97","29.84","349","2.1","7.2","1.46","0.05"
"22:09:59","50.8","50","97","29.84","345","2.7","12","1.46","0.04"
"22:14:59","50.8","50","97","29.84","332","2.5","11.5","1.46","0.04"
"22:19:59","50.8","50","97","29.84","327","2.3","6","1.47","0.04"
"22:24:58","50.8","50","97","29.84","343","3","7.2","1.47","0.04"
"22:29:58","50.7","49.9","97","29.84","354","0.9","3.6","1.47","0.04"
"22:34:56","50.7","49.9","97","29.84","345","2","6","1.48","0.04"
"22:39:56","50.7","49.9","97","29.84","350","2.2","6","1.48","0.04"
"22:44:56","50.7","49.9","97","29.84","355","1.4","3.6","1.48","0.03"
"22:49:56","50.6","49.8","97","29.84","338","3.4","7.2","1.48","0.03"
"22:54:56","50.6","49.8","97","29.84","334","2.4","8.4","1.48","0.03"
"22:59:59","50.6","49.8","97","29.84","352","3","7.2","1.48","0.02"
"23:04:59","50.6","49.8","97","29.83","351","2.8","7.2","1.48","0.02"
"23:09:59","50.6","49.8","97","29.83","342","2.2","8.4","1.48","0.02"
"23:14:59","50.6","49.8","97","29.83","327","3.1","10.8","1.48","0.02"
"23:19:59","50.6","49.8","97","29.83","342","2.8","8.4","1.48","0.02"
"23:24:59","50.6","49.8","97","29.83","345","3.6","8.1","1.48","0.01"
"23:29:58","50.6","49.8","97","29.83","1","2.4","10.8","1.48","0.01"
"23:34:58","50.6","49.8","97","29.82","342","2.8","7.2","1.49","0.01"
"23:39:58","50.5","49.7","97","29.82","332","3","9.6","1.49","0.01"
"23:44:57","50.5","49.7","97","29.82","346","3.6","12","1.49","0.01"
"23:49:57","50.5","49.7","97","29.82","339","2.9","7.2","1.49","0.01"
"23:54:59","50.5","49.7","97","29.82","337","2.9","7.2","1.49","0.01"
